H1 CPF 2 NER 2025 7 31 9 212 01 glonass132 H2 1401201 9132 39620 2025 7 31 0 0 0 2025 8 3 23 45 0 900 1 1 0 0 0 1 H9 10 0 60887 0.00000 0 1276810.481 11214387.307 22884420.356 10 0 60887 900.00000 0 -1477243.491 10504632.870 23210047.225 10 0 60887 1800.00000 0 -4288660.862 10001864.202 23085542.220 10 0 60887 2700.00000 0 -7087064.695 9716656.151 22513457.525 10 0 60887 3600.00000 0 -9801738.378 9647009.623 21504999.167 10 0 60887 4500.00000 0 -12364327.084 9778517.981 20079802.810 10 0 60887 5400.00000 0 -14711445.225 10085068.792 18265549.812 10 0 60887 6300.00000 0 -16787083.295 10530050.721 16097430.962 10 0 60887 7200.00000 0 -18544715.801 11068014.556 13617467.986 10 0 60887 8100.00000 0 -19949024.219 11646718.620 10873705.341 10 0 60887 9000.00000 0 -20977164.653 12209472.884 7919287.170 10 0 60887 9900.00000 0 -21619528.452 12697683.670 4811436.472 10 0 60887 10800.00000 0 -21879964.885 13053492.333 1610355.382 10 0 60887 11700.00000 0 -21775457.070 13222397.231 -1621932.890 10 0 60887 12600.00000 0 -21335264.928 13155748.706 -4822778.658 10 0 60887 13500.00000 0 -20599571.086 12813011.845 -7930114.217 10 0 60887 14400.00000 0 -19617686.293 12163701.199 -10883653.111 10 0 60887 15300.00000 0 -18445889.367 11188905.093 -13626057.108 10 0 60887 16200.00000 0 -17144991.975 9882334.071 -16104048.362 10 0 60887 17100.00000 0 -15777730.168 8250847.739 -18269445.222 10 0 60887 18000.00000 0 -14406091.916 6314435.930 -20080101.465 10 0 60887 18900.00000 0 -13088692.698 4105652.793 -21500730.608 10 0 60887 19800.00000 0 -11878309.264 1668525.273 -22503599.056 10 0 60887 20700.00000 0 -10819675.257 -943020.593 -23069074.267 10 0 60887 21600.00000 0 -9947631.500 -3667151.866 -23186016.802 10 0 60887 22500.00000 0 -9285708.996 -6436458.077 -22852008.056 10 0 60887 23400.00000 0 -8845204.683 -9180521.984 -22073408.469 10 0 60887 24300.00000 0 -8624789.297 -11828625.605 -20865244.269 10 0 60887 25200.00000 0 -8610664.307 -14312479.283 -19250924.071 10 0 60887 26100.00000 0 -8777261.687 -16568860.128 -17261789.988 10 0 60887 27000.00000 0 -9088457.152 -18542049.530 -14936511.295 10 0 60887 27900.00000 0 -9499245.566 -20185967.670 -12320331.960 10 0 60887 28800.00000 0 -9957807.302 -21465915.307 -9464186.545 10 0 60887 29700.00000 0 -10407877.386 -22359849.530 -6423701.858 10 0 60887 30600.00000 0 -10791316.116 -22859140.001 -3258104.374 10 0 60887 31500.00000 0 -11050770.902 -22968774.065 -29055.621 10 0 60887 32400.00000 0 -11132315.180 -22707002.902 3200560.599 10 0 60887 33300.00000 0 -10987951.123 -22104444.708 6367874.230 10 0 60887 34200.00000 0 -10577868.889 -21202684.095 9411262.745 10 0 60887 35100.00000 0 -9872365.698 -20052428.388 12271557.526 10 0 60887 36000.00000 0 -8853342.778 -18711300.111 14893198.487 10 0 60887 36900.00000 0 -7515316.520 -17241360.221 17225313.900 10 0 60887 37800.00000 0 -5865901.067 -15706467.559 19222704.432 10 0 60887 38700.00000 0 -3925742.007 -14169586.319 20846712.658 10 0 60887 39600.00000 0 -1727904.122 -12690154.895 22065961.986 10 0 60887 40500.00000 0 683261.100 -11321626.133 22856951.814 10 0 60887 41400.00000 0 3253720.874 -10109281.224 23204498.724 10 0 60887 42300.00000 0 5921772.755 -9088407.428 23102016.544 10 0 60887 43200.00000 0 8620379.263 -8282914.282 22551631.166 10 0 60887 44100.00000 0 11279729.280 -7704444.321 21564128.966 10 0 60887 45000.00000 0 13829920.889 -7352013.793 20158740.596 10 0 60887 45900.00000 0 16203655.609 -7212196.790 18362764.730 10 0 60887 46800.00000 0 18338833.593 -7259843.770 16211039.068 10 0 60887 47700.00000 0 20180943.495 -7459303.466 13745268.540 10 0 60887 48600.00000 0 21685149.039 -7766096.398 11013223.129 10 0 60887 49500.00000 0 22817986.756 -8128969.529 8067820.083 10 0 60887 50400.00000 0 23558605.130 -8492245.831 4966107.450 10 0 60887 51300.00000 0 23899494.208 -8798370.150 1768167.786 10 0 60887 52200.00000 0 23846675.628 -8990544.467 -1464037.525 10 0 60887 53100.00000 0 23419345.241 -9015341.746 -4667861.563 10 0 60887 54000.00000 0 22648983.198 -8825188.137 -7781180.151 10 0 60887 54900.00000 0 21577968.431 -8380608.629 -10743592.091 10 0 60887 55800.00000 0 20257755.163 -7652140.790 -13497588.253 10 0 60887 56700.00000 0 18746687.378 -6621834.923 -15989666.962 10 0 60887 57600.00000 0 17107542.314 -5284276.006 -18171374.085 10 0 60887 58500.00000 0 15404905.543 -3647082.646 -20000247.503 10 0 60887 59400.00000 0 13702487.236 -1730859.987 -21440647.527 10 0 60887 60300.00000 0 12060491.855 431393.718 -22464456.883 10 0 60887 61200.00000 0 10533151.361 2795404.315 -23051636.311 10 0 60887 62100.00000 0 9166525.345 5307218.243 -23190624.501 10 0 60887 63000.00000 0 7996660.398 7905213.609 -22878574.030 10 0 60887 63900.00000 0 7048186.164 10522443.553 -22121417.910 10 0 60887 64800.00000 0 6333407.219 13089215.359 -20933764.688 10 0 60887 65700.00000 0 5851929.158 15535798.512 -19338623.210 10 0 60887 66600.00000 0 5590834.777 17795148.951 -17366961.571 10 0 60887 67500.00000 0 5525402.856 19805535.713 -15057108.167 10 0 60887 68400.00000 0 5620339.014 21512959.805 -12454005.947 10 0 60887 69300.00000 0 5831466.101 22873263.440 -9608334.265 10 0 60887 70200.00000 0 6107801.848 23853840.876 -6575515.611 10 0 60887 71100.00000 0 6393934.704 24434878.527 -3414627.091 10 0 60887 72000.00000 0 6632595.838 24610072.079 -187238.765 10 0 60887 72900.00000 0 6767316.821 24386790.881 3043797.326 10 0 60887 73800.00000 0 6745058.788 23785683.249 6215582.571 10 0 60887 74700.00000 0 6518700.213 22839740.429 9266406.215 10 0 60887 75600.00000 0 6049276.701 21592859.935 12136953.565 10 0 60887 76500.00000 0 5307877.031 20097970.243 14771463.606 10 0 60887 77400.00000 0 4277114.664 18414797.226 17118812.918 10 0 60887 78300.00000 0 2952112.326 16607367.531 19133504.780 10 0 60887 79200.00000 0 1340958.092 14741354.647 20776544.629 10 0 60887 80100.00000 0 -535386.113 12881379.443 22016185.650 10 0 60887 81000.00000 0 -2643719.630 11088378.153 22828531.198 10 0 60887 81900.00000 0 -4939755.200 9417147.213 23197983.686 10 0 60887 82800.00000 0 -7369740.096 7914166.445 23117532.629 10 0 60887 83700.00000 0 -9872479.031 6615789.858 22588877.591 10 0 60887 84600.00000 0 -12381675.291 5546877.747 21622384.721 10 0 60887 85500.00000 0 -14828493.592 4719925.228 20236878.529 10 0 60888 0.00000 0 -17144239.099 4134721.730 18459273.510 10 0 60888 900.00000 0 -19263043.738 3778553.714 16324051.777 10 0 60888 1800.00000 0 -21124446.430 3626941.451 13872598.998 10 0 60888 2700.00000 0 -22675765.307 3644876.993 11152407.744 10 0 60888 3600.00000 0 -23874161.191 3788511.610 8216165.186 10 0 60888 4500.00000 0 -24688308.505 4007221.207 5120741.124 10 0 60888 5400.00000 0 -25099604.346 4245962.936 1926095.204 10 0 60888 6300.00000 0 -25102865.534 4447823.936 -1305876.297 10 0 60888 7200.00000 0 -24706484.519 4556654.982 -4512532.407 10 0 60888 8100.00000 0 -23932037.377 4519678.078 -7631695.523 10 0 60888 9000.00000 0 -22813359.816 4289957.873 -10602852.588 10 0 60888 9900.00000 0 -21395129.261 3828632.224 -13368326.249 10 0 60888 10800.00000 0 -19731011.683 3106807.059 -15874393.413 10 0 60888 11700.00000 0 -17881450.033 2107034.516 -18072329.541 10 0 60888 12600.00000 0 -15911186.158 824310.575 -19919358.288 10 0 60888 13500.00000 0 -13886619.348 -733451.655 -21379487.961 10 0 60888 14400.00000 0 -11873111.480 -2545495.016 -22424218.287 10 0 60888 15300.00000 0 -9932351.171 -4578836.936 -23033103.436 10 0 60888 16200.00000 0 -8119887.000 -6789409.977 -23194159.877 10 0 60888 17100.00000 0 -6482932.852 -9123678.718 -22904110.530 10 0 60888 18000.00000 0 -5058537.327 -11520667.219 -22168459.744 10 0 60888 18900.00000 0 -3872193.919 -13914313.791 -21001396.785 10 0 60888 19800.00000 0 -2936950.290 -16236055.764 -19425528.855 10 0 60888 20700.00000 0 -2253054.051 -18417536.683 -17471447.965 10 0 60888 21600.00000 0 -1808149.757 -20393322.850 -15177139.416 10 0 60888 22500.00000 0 -1578018.462 -22103515.167 -12587242.851 10 0 60888 23400.00000 0 -1527828.025 -23496146.314 -9752180.135 10 0 60888 24300.00000 0 -1613840.446 -24529261.996 -6727167.194 10 0 60888 25200.00000 0 -1785502.831 -25172598.159 -3571129.568 10 0 60888 26100.00000 0 -1987832.066 -25408783.259 -345543.757 10 0 60888 27000.00000 0 -2163990.502 -25234014.685 2886771.963 10 0 60888 27900.00000 0 -2257941.847 -24658181.173 6062892.406 10 0 60888 28800.00000 0 -2217073.152 -23704426.797 9121020.503 10 0 60888 29700.00000 0 -1994670.341 -22408175.705 12001697.378 10 0 60888 30600.00000 0 -1552141.367 -20815659.919 14648962.935 10 0 60888 31500.00000 0 -860892.177 -18982013.430 17011443.831 10 0 60888 32400.00000 0 96224.174 -16969013.888 19043347.608 10 0 60888 33300.00000 0 1323946.531 -14842567.600 20705344.035 10 0 60888 34200.00000 0 2814173.103 -12670043.829 21965317.343 10 0 60888 35100.00000 0 4546075.369 -10517569.978 22798975.854 10 0 60888 36000.00000 0 6486753.505 -8447400.196 23190308.555 10 0 60888 36900.00000 0 8592405.852 -6515466.244 23131881.125 10 0 60888 37800.00000 0 10809963.745 -4769211.254 22624967.011 10 0 60888 38700.00000 0 13079123.978 -3245794.815 21679512.104 10 0 60888 39600.00000 0 15334694.905 -1970742.205 20313934.503 10 0 60888 40500.00000 0 17509159.450 -957091.945 18554763.683 10 0 60888 41400.00000 0 19535349.479 -205075.296 16436126.087 10 0 60888 42300.00000 0 21349121.375 297660.650 13999086.861 10 0 60888 43200.00000 0 22891922.605 575297.006 11290859.898 10 0 60888 44100.00000 0 24113143.358 662586.941 8363900.724 10 0 60888 45000.00000 0 24972156.039 603152.645 5274898.990 10 0 60888 45900.00000 0 25439958.025 447407.272 2083689.201 10 0 60888 46800.00000 0 25500349.336 250189.323 -1147900.005 10 0 60888 47700.00000 0 25150595.874 68209.038 -4357236.358 10 0 60888 48600.00000 0 24401550.125 -42585.696 -7482091.737 10 0 60888 49500.00000 0 23277223.639 -29612.763 -10461844.167 10 0 60888 50400.00000 0 21813828.348 153881.454 -13238650.956 10 0 60888 51300.00000 0 20058325.917 546604.444 -15758570.346 10 0 60888 52200.00000 0 18066544.790 1177339.407 -17972609.956 10 0 60888 53100.00000 0 15900942.768 2063486.925 -19837681.572 10 0 60888 54000.00000 0 13628107.734 3210089.444 -21317443.603 10 0 60888 54900.00000 0 11316100.188 4609381.460 -22383014.653 10 0 60888 55800.00000 0 9031748.031 6240886.383 -23013543.923 10 0 60888 56700.00000 0 6838006.108 8072058.210 -23196626.944 10 0 60888 57600.00000 0 4791490.496 10059443.225 -22928557.931 10 0 60888 58500.00000 0 2940290.443 12150315.013 -22214413.115 10 0 60888 59400.00000 0 1322149.325 14284715.986 -21067962.619 10 0 60888 60300.00000 0 -36909.294 16397821.175 -19511411.680 10 0 60888 61200.00000 0 -1123452.994 18422526.084 -17574975.450 10 0 60888 62100.00000 0 -1936972.907 20292150.436 -15296294.911 10 0 60888 63000.00000 0 -2489663.581 21943144.301 -12719704.740 10 0 60888 63900.00000 0 -2805660.273 23317682.539 -9895367.239 10 0 60888 64800.00000 0 -2919766.718 24366037.812 -6878289.316 10 0 60888 65700.00000 0 -2875728.357 25048631.544 -3727242.194 10 0 60888 66600.00000 0 -2724125.503 25337675.733 -503605.779 10 0 60888 67500.00000 0 -2519977.348 25218335.897 2729838.658 10 0 60888 68400.00000 0 -2320160.042 24689366.077 5910142.655 10 0 60888 69300.00000 0 -2180750.000 23763189.254 8975426.179 10 0 60888 70200.00000 0 -2154406.511 22465420.406 11866089.444 10 0 60888 71100.00000 0 -2287905.784 20833853.130 14525976.411 10 0 60888 72000.00000 0 -2619931.717 18916953.461 16903466.753 10 0 60888 72900.00000 0 -3179217.249 16771925.242 18952474.969 10 0 60888 73800.00000 0 -3983114.988 14462429.124 20633337.587 10 0 60888 74700.00000 0 -5036657.146 12056051.331 21913571.961 10 0 60888 75600.00000 0 -6332144.095 9621628.251 22768493.104 10 0 60888 76500.00000 0 -7849278.424 7226538.186 23181677.881 10 0 60888 77400.00000 0 -9555838.648 4934072.396 23145268.966 10 0 60888 78300.00000 0 -11408864.242 2800993.609 22660114.004 10 0 60888 79200.00000 0 -13356302.679 875381.869 21735738.381 10 0 60888 80100.00000 0 -15339050.123 -805144.595 20390152.962 10 0 60888 81000.00000 0 -17293301.379 -2214761.562 18649500.964 10 0 60888 81900.00000 0 -19153112.040 -3340270.726 16547550.872 10 0 60888 82800.00000 0 -20853067.022 -4181398.538 14125044.986 10 0 60888 83700.00000 0 -22330945.278 -4750551.196 11428915.631 10 0 60888 84600.00000 0 -23530270.499 -5072037.362 8511383.473 10 0 60888 85500.00000 0 -24402642.063 -5180792.090 5428954.580 10 0 60889 0.00000 0 -24909749.387 -5120656.089 2241335.050 10 0 60889 900.00000 0 -25024985.833 -4942282.863 -989718.264 10 0 60889 1800.00000 0 -24734593.938 -4700761.947 -4201585.060 10 0 60889 2700.00000 0 -24038294.483 -4453058.167 -7331990.126 10 0 60889 3600.00000 0 -22949371.520 -4255374.897 -10320205.858 10 0 60889 4500.00000 0 -21494209.135 -4160552.560 -13108227.310 10 0 60889 5400.00000 0 -19711298.116 -4215612.362 -15641896.876 10 0 60889 6300.00000 0 -17649752.800 -4459549.405 -17871956.796 10 0 60889 7200.00000 0 -15367398.874 -4921469.076 -19755008.988 10 0 60889 8100.00000 0 -12928510.806 -5619146.411 -21254363.452 10 0 60889 9000.00000 0 -10401292.298 -6558070.611 -22340758.526 10 0 60889 9900.00000 0 -7855204.016 -7731016.649 -22992938.666 10 0 60889 10800.00000 0 -5358249.350 -9118163.924 -23198078.048 10 0 60889 11700.00000 0 -2974330.877 -10687758.948 -22952041.172 10 0 60889 12600.00000 0 -760787.515 -12397296.179 -22259474.627 10 0 60889 13500.00000 0 1233785.037 -14195169.143 -21133727.431 10 0 60889 14400.00000 0 2971339.653 -16022723.952 -19596600.581 10 0 60889 15300.00000 0 4425733.476 -17816629.979 -17677929.851 10 0 60889 16200.00000 0 5583577.346 -19511468.608 -15415009.213 10 0 60889 17100.00000 0 6444543.708 -21042431.374 -12851865.615 10 0 60889 18000.00000 0 7021120.609 -22348013.610 -10038399.003 10 0 60889 18900.00000 0 7337822.967 -23372589.503 -7029404.520 10 0 60889 19800.00000 0 7429895.615 -24068759.273 -3883496.383 10 0 60889 20700.00000 0 7341564.278 -24399368.468 -661955.334 10 0 60889 21600.00000 0 7123910.167 -24339113.499 2572476.786 10 0 60889 22500.00000 0 6832460.017 -23875665.148 5756830.527 10 0 60889 23400.00000 0 6524595.378 -23010262.453 8829144.992 10 0 60889 24300.00000 0 6256892.614 -21757752.106 11729681.382 10 0 60889 25200.00000 0 6082507.647 -20146072.143 14402089.411 10 0 60889 26100.00000 0 6048717.176 -18215202.389 16794503.237 10 0 60889 27000.00000 0 6194720.997 -16015626.627 18860545.539 10 0 60889 27900.00000 0 6549798.408 -13606371.750 20560220.538 10 0 60889 28800.00000 0 7131896.317 -11052706.647 21860679.375 10 0 60889 29700.00000 0 7946708.081 -8423597.240 22736844.112 10 0 60889 30600.00000 0 8987281.229 -5789023.673 23171879.565 10 0 60889 31500.00000 0 10234170.002 -3217270.821 23157505.210 10 0 60889 32400.00000 0 11656125.856 -772303.709 22694142.462 10 0 60889 33300.00000 0 13211296.876 1488664.593 21790895.576 10 0 60889 34200.00000 0 14848885.989 3517313.343 20465367.390 10 0 60889 35100.00000 0 16511199.079 5275975.885 18743313.922 10 0 60889 36000.00000 0 18135998.124 6738951.659 16658144.637 10 0 60889 36900.00000 0 19659061.861 7893315.829 14250277.775 10 0 60889 37800.00000 0 21016847.957 8739194.643 11566362.736 10 0 60889 38700.00000 0 22149146.323 9289496.547 8658383.792 10 0 60889 39600.00000 0 23001613.389 9569111.451 5582661.689 10 0 60889 40500.00000 0 23528081.850 9613612.530 2398771.608 10 0 60889 41400.00000 0 23692549.418 9467515.474 -831602.369 10 0 60889 42300.00000 0 23470763.167 9182168.582 -4045854.753 10 0 60889 43200.00000 0 22851332.638 8813362.437 -7181665.632 10 0 60889 44100.00000 0 21836324.212 8418759.812 -10178204.183 10 0 60889 45000.00000 0 20441310.761 8055254.040 -12977305.575 10 0 60889 45900.00000 0 18694873.137 7776367.274 -15524598.618 10 0 60889 46800.00000 0 16637572.851 7629798.607 -17770562.306 10 0 60889 47700.00000 0 14320437.352 7655225.914 -19671490.681 10 0 60889 48600.00000 0 11803019.674 7882454.831 -21190347.151 10 0 60889 49500.00000 0 9151111.997 8329993.975 -22297491.464 10 0 60889 50400.00000 0 6434207.292 9004117.704 -22971264.822 10 0 60889 51300.00000 0 3722813.830 9898457.448 -23198421.334 10 0 60889 52200.00000 0 1085733.685 10994140.495 -22974396.795 10 0 60889 53100.00000 0 -1412581.847 12260472.102 -22303408.834 10 0 60889 54000.00000 0 -3714490.006 13656133.855 -21198385.654 10 0 60889 54900.00000 0 -5771325.163 15130849.298 -19680723.861 10 0 60889 55800.00000 0 -7545187.706 16627447.768 -17779879.243 10 0 60889 56700.00000 0 -9010278.563 18084240.283 -15532797.728 10 0 60889 57600.00000 0 -10153723.662 19437607.596 -12983197.073 10 0 60889 58500.00000 0 -10975854.111 20624691.055 -10180713.035 10 0 60889 59400.00000 0 -11489931.109 21586072.352 -7179926.818 10 0 60889 60300.00000 0 -11721328.116 22268328.049 -4039293.209 10 0 60889 61200.00000 0 -11706206.035 22626349.926 -819991.123 10 0 60889 62100.00000 0 -11489739.134 22625332.335 2415279.854 10 0 60889 63000.00000 0 -11123968.409 22242341.654 5603532.229 10 0 60889 63900.00000 0 -10665375.145 21467401.069 8682727.259 10 0 60889 64800.00000 0 -10172279.146 20304044.727 11592990.190 10 0 60889 65700.00000 0 -9702173.298 18769317.944 14277779.502 10 0 60889 66600.00000 0 -9309108.462 16893223.874 16684986.770 10 0 60889 67500.00000 0 -9041239.996 14717640.493 18767945.635 10 0 60889 68400.00000 0 -8938639.838 12294753.963 20486330.597 10 0 60889 69300.00000 0 -9031466.290 9685074.489 21806928.906 10 0 60889 70200.00000 0 -9338568.072 6955117.919 22704271.676 10 0 60889 71100.00000 0 -9866580.632 4174849.664 23161113.294 10 0 60889 72000.00000 0 -10609551.810 1414996.971 23168751.222 10 0 60889 72900.00000 0 -11549111.770 -1255659.657 22727181.340 10 0 60889 73800.00000 0 -12655179.468 -3772904.683 21845086.924 10 0 60889 74700.00000 0 -13887175.710 -6079508.370 20539662.373 10 0 60889 75600.00000 0 -15195692.024 -8127351.602 18836275.531 10 0 60889 76500.00000 0 -16524545.794 -9879168.513 16767975.297 10 0 60889 77400.00000 0 -17813136.233 -11309836.417 14374853.805 10 0 60889 78300.00000 0 -18999003.324 -12407161.251 11703275.017 10 0 60889 79200.00000 0 -20020483.401 -13172127.391 8804983.925 10 0 60889 80100.00000 0 -20819350.881 -13618602.702 5736112.780 10 0 60889 81000.00000 0 -21343335.994 -13772512.120 2556102.755 10 0 60889 81900.00000 0 -21548413.271 -13670515.005 -673438.924 10 0 60889 82800.00000 0 -21400764.742 -13358242.082 -3889924.870 10 0 60889 83700.00000 0 -20878335.090 -12888166.126 -7030994.041 10 0 60889 84600.00000 0 -19971912.716 -12317195.905 -10035715.919 10 0 60889 85500.00000 0 -18685690.244 -11704094.532 -12845769.198 10 0 60890 0.00000 0 -17037279.688 -11106830.925 -15406572.097 10 0 60890 900.00000 0 -15057179.018 -10579975.680 -17668343.748 10 0 60890 1800.00000 0 -12787712.985 -10172252.061 -19587072.587 10 0 60890 2700.00000 0 -10281487.679 -9924344.626 -21125377.436 10 0 60890 3600.00000 0 -7599423.749 -9867059.279 -22253240.844 10 0 60890 4500.00000 0 -4808447.920 -10019912.826 -22948601.481 10 0 60890 5400.00000 0 -1978937.803 -10390212.590 -23197793.424 10 0 60890 6300.00000 0 817974.671 -10972666.156 -22995823.136 10 0 60890 7200.00000 0 3513129.612 -11749539.030 -22346478.069 10 0 60890 8100.00000 0 6041982.285 -12691354.976 -21262263.888 10 0 60890 9000.00000 0 8347053.061 -13758110.751 -19764170.665 10 0 60890 9900.00000 0 10380082.052 -14900955.079 -17881271.727 10 0 60890 10800.00000 0 12103798.453 -16064261.738 -15650162.220 10 0 60890 11700.00000 0 13493230.611 -17188009.587 -13114247.749 10 0 60890 12600.00000 0 14536502.113 -18210368.883 -10322896.772 10 0 60890 13500.00000 0 15235080.948 -19070384.168 -7330473.347 10 0 60890 14400.00000 0 15603472.001 -19710639.372 -4195269.532 10 0 60890 15300.00000 0 15668366.949 -20079791.473 -978359.168 10 0 60890 16200.00000 0 15467288.828 -20134864.301 2257603.568 10 0 60890 17100.00000 0 15046790.242 -19843204.461 5449616.127 10 0 60890 18000.00000 0 14460283.251 -19184015.956 8535564.628 10 0 60890 18900.00000 0 13765594.494 -18149408.035 11455440.751 10 0 60890 19800.00000 0 13022350.617 -16744911.834 14152513.764 10 0 60890 20700.00000 0 12289305.909 -14989444.158 16574434.275 10 0 60890 21600.00000 0 11621725.974 -12914720.185 18674248.080 10 0 60890 22500.00000 0 11068938.322 -10564140.181 20411300.733 10 0 60890 23400.00000 0 10672153.086 -7991197.297 21752015.957 10 0 60890 24300.00000 0 10462645.123 -5257473.265 22670533.894 10 0 60890 25200.00000 0 10460373.065 -2430305.586 23149198.122 10 0 60890 26100.00000 0 10673092.269 419776.967 23178883.391 10 0 60890 27000.00000 0 11095997.720 3221744.663 22759159.061 10 0 60890 27900.00000 0 11711910.830 5906772.365 21898286.231 10 0 60890 28800.00000 0 12492001.477 8410849.465 20613049.479 10 0 60890 29700.00000 0 13397014.506 10677187.651 18928426.958 10 0 60890 30600.00000 0 14378949.184 12658328.463 16877105.382 10 0 60890 31500.00000 0 15383121.392 14317864.953 14498849.071 10 0 60890 32400.00000 0 16350522.574 15631707.694 11839734.769 10 0 60890 33300.00000 0 17220377.157 16588844.032 8951266.319 10 0 60890 34200.00000 0 17932791.787 17191560.213 5889385.523 10 0 60890 35100.00000 0 18431385.773 17455118.153 2713397.500 10 0 60890 36000.00000 0 18665792.652 17406901.050 -515169.488 10 0 60890 36900.00000 0 18593927.876 17085064.001 -3733748.300 10 0 60890 37800.00000 0 18183927.062 16536746.381 -6879938.908 10 0 60890 38700.00000 0 17415672.718 15815921.001 -9892713.174 10 0 60890 39600.00000 0 16281844.255 14980970.273 -12713595.291 10 0 60890 40500.00000 0 14788445.786 14092091.151 -15287795.166 10 0 60890 41400.00000 0 12954787.870 13208637.858 -17565272.830 10 0 60890 42300.00000 0 10812921.992 12386514.214 -19501713.146 10 0 60890 43200.00000 0 8406549.459 11675725.397 -21059391.759 10 0 60890 44100.00000 0 5789448.206 11118192.511 -22207915.302 10 0 60890 45000.00000 0 3023481.317 10745922.426 -22924821.061 10 0 60890 45900.00000 0 176268.583 10579610.644 -23196024.042 10 0 60890 46800.00000 0 -2681383.305 10627736.864 -23016102.126 10 0 60890 47700.00000 0 -5478185.941 10886192.335 -22388413.026 10 0 60890 48600.00000 0 -8145097.808 11338455.697 -21325039.943 10 0 60890 49500.00000 0 -10617963.053 11956310.911 -19846566.082 10 0 60890 50400.00000 0 -12839950.472 12701077.809 -17981681.553 10 0 60890 51300.00000 0 -14763690.890 13525303.892 -15766629.553 10 0 60890 52200.00000 0 -16353023.445 14374846.209 -13244502.027 10 0 60890 53100.00000 0 -17584277.675 15191255.157 -10464398.329 10 0 60890 54000.00000 0 -18447037.771 15914358.920 -7480463.333 10 0 60890 54900.00000 0 -18944357.328 16484938.286 -4350824.194 10 0 60890 55800.00000 0 -19092416.304 16847377.528 -1136447.356 10 0 60890 56700.00000 0 -18919635.815 16952177.784 2100060.857 10 0 60890 57600.00000 0 -18465289.602 16758225.388 5295685.355 10 0 60890 58500.00000 0 -17777672.524 16234718.053 8388239.757 10 0 60890 59400.00000 0 -16911905.246 15362666.629 11317584.865 10 0 60890 60300.00000 0 -15927469.592 14135908.521 14026803.457 10 0 60890 61200.00000 0 -14885580.121 12561589.719 16463307.872 10 0 60890 62100.00000 0 -13846503.999 10660095.266 18579858.683 10 0 60890 63000.00000 0 -12866942.823 8464431.273 20335474.966 10 0 60890 63900.00000 0 -11997586.748 6019084.702 21696219.155 10 0 60890 64800.00000 0 -11280943.405 3378408.813 22635842.365 10 0 60890 65700.00000 0 -10749531.955 604601.672 23136278.954 10 0 60890 66600.00000 0 -10424516.838 -2234638.281 23187982.137 10 0 60890 67500.00000 0 -10314837.162 -5068682.709 22790095.498 10 0 60890 68400.00000 0 -10416866.725 -7826664.100 21950458.229 10 0 60890 69300.00000 0 -10714617.698 -10440176.273 20685444.860 10 0 60890 70200.00000 0 -11180478.346 -12845874.198 19019643.144 10 0 60890 71100.00000 0 -11776453.240 -14987866.928 16985376.419 10 0 60890 72000.00000 0 -12455853.644 -16819806.040 14622079.554 10 0 60890 72900.00000 0 -13165367.220 -18306584.483 11975540.034 10 0 60890 73800.00000 0 -13847420.514 -19425576.686 9097018.170 10 0 60890 74700.00000 0 -14442735.457 -20167369.537 6042262.653 10 0 60890 75600.00000 0 -14892972.983 -20535954.693 2870439.666 10 0 60890 76500.00000 0 -15143352.983 -20548374.898 -357004.550 10 0 60890 77400.00000 0 -15145140.599 -20233839.447 -3577526.290 10 0 60890 78300.00000 0 -14857894.134 -19632345.979 -6728689.827 10 0 60890 79200.00000 0 -14251379.510 -18792866.299 -9749372.754 10 0 60890 80100.00000 0 -13307069.860 -17771172.140 -12580948.116 10 0 60890 81000.00000 0 -12019165.933 -16627391.890 -15168420.577 10 0 60890 81900.00000 0 -10395092.801 -15423400.602 -17461494.655 10 0 60890 82800.00000 0 -8455450.082 -14220152.747 -19415554.232 10 0 60890 83700.00000 0 -6233415.632 -13075069.668 -20992534.213 10 0 60890 84600.00000 0 -3773625.421 -12039591.524 -22161667.241 10 0 60890 85500.00000 0 -1130574.236 -11156996.802 -22900090.547 99